Regional Weather Roundup
Issued by NWS New Orleans/Baton Rouge, LA

Home | Current Version | Previous Version | Text Only | Print | Product List | Glossary On
Versions: 1 2 3 4 5 6 7 8 9 10 11 12 13 14 15 16 17 18 19 20 21 22 23 24 25 26 27 28 29 30 31 32 33 34 35 36 37 38 39 40 41 42 43 44 45 46 47 48 49 50
879
ASUS44 KLIX 272210
RWRLIX
NEW ORLEANS REGIONAL WEATHER ROUNDUP
NATIONAL WEATHER SERVICE NEW ORLEANS LA
500 PM CDT SUN JUL 27 2014

NOTE: "FAIR" INDICATES FEW OR NO CLOUDS BELOW 12,000 FEET WITH NO
      SIGNIFICANT WEATHER AND/OR OBSTRUCTIONS TO VISIBILITY.
      SKY/WX - SKY CONDITION AND SIGNIFICANT WEATHER.
      TMP - AIR TEMPERATURE.     DP    - DEWPOINT TEMPERATURE.
      RH  - RELATIVE HUMIDITY.   PRES  - PRESSURE.
      HI  - HEAT INDEX.          WCI   - WIND CHILL INDEX.

*  THESE STATIONS ARE NOT NWS OR FAA STATIONS AND ARE NOT UNDER
   NWS QUALITY CONTROL.

LAZ038-040-048-061>063-065>067-069-272300-
SOUTHEAST LOUISIANA

CITY           SKY/WX    TMP DP  RH WIND       PRES   REMARKS
N.O. AUDUBON   NOT AVBL
N.O. INTL ARPT MOSUNNY   91  72  53 W9        30.03F HX  98
N.O. LAKEFRONT MOSUNNY   92  74  55 NW6       30.03F HX 101
N.O. DOWNTOWN* CLOUDY    93  72  49 CALM      30.03F HX 100
SLIDELL        SUNNY     92  71  50 SW8       30.02F HX  98
BATON ROUGE    PTSUNNY   93  74  53 W7        30.02F HX 103
BOOTHVILLE     SUNNY     88  76  67 SW10      30.06F HX  99
BELLE CHASSE   PTSUNNY   91  73  55 SW10      30.03F HX  99
BOGALUSA*        N/A     94  72  48 W6        30.03F HX 101
GALLIANO*      NOT AVBL
NEW ROADS*       N/A     93  73  52 W5        30.02F HX 102
GONZALES*        N/A     89  77  67 SW3       30.03S HX 101
HAMMOND*       SUNNY     95  66  38 W8        30.04F HX  98
HOUMA*         NOT AVBL
PORT FOURCHON* PTCLDY    90  75  62 SW14      30.07F HX 100

$$

MSZ070-080>082-272300-
SOUTHERN MISSISSIPPI

CITY           SKY/WX    TMP DP  RH WIND       PRES   REMARKS
MCCOMB         MOSUNNY   91  73  55 SW10      30.03F HX  99
GULFPORT       MOSUNNY   95  73  48 SW8       30.01F HX 104
BILOXI         SUNNY     91  75  60 SW14      30.02S HX 101
PASCAGOULA     SUNNY     90  74  59 S10       30.02S HX  99
STENNIS ARPT*  MOSUNNY  N/A N/A N/A W6        30.02F

$$

COASTAL OBSERVATIONS
LAKE AND NEARSHORE STATIONS

STATION/POSITION TIME  TEMP    WIND        PRES    WAVE
                       AIR SEA DIR/SP/G            HT/PER
                 (UTC) (F)     (DEG/KT/KT) (MB)    (FT/S)
PASCAGOULA       2200   90     230/ 11/ 15 1016.3
WAVELAND YACHT   2200   91     270/  5/ 10 1016.0
GRAND ISLE       2200   88 87  220/  8/ 13 1018.5
SOUTHWEST PASS   2200   88 85  250/  9/ 12 1018.4
NEW CANAL        2200   90 86  360/  3/  4 1017.4
SHELL BEACH      2200   87 83   CALM  /  1 1017.0

OFFSHORE STATIONS

STATION/POSITION TIME  TEMP    WIND        PRES    WAVE
                       AIR SEA DIR/SP/G            HT/PER
                 (UTC) (F)     (DEG/KT/KT) (MB)    (FT/S)
64 S DAUPHIN ISL 2053   85 89  250/  8/  8 1018.1

$$




USA.gov is the U.S. government's official web portal to all federal, state and local government web resources and services.